Location: Street
(51.1247°N, 2.7429°W)
Time: 17:52:11
(UTC+00:00)

Courier 1B Rocket - Pass Details

Date: 03 December 2020
Orbit: 920 x 1202 km, 28.2° (Epoch: 14 January)

Event Time Altitude Azimuth Distance (km) Brightness Sun altitude
Exits shadow 05:26:17 - 215° (SW) 3,686 7.8 -22.4°
Reaches altitude 10° 05:29:53 10° 193° (SSW) 3,127 7.6 -21.8°
Maximum altitude 05:32:14 12° 176° (S) 3,010 7.7 -21.5°
Drops below altitude 10° 05:34:35 10° 158° (SSE) 3,125 8.0 -21.1°
Sets 05:39:54 0° 128° (SE) 4,065 9.3 -20.3°
